| time (UTC) | temp F | wind direction | speed MPH | gust MPH | rain 1hr in | rain 24hr in | rain mn in | humidity % | barometer mb |
| 20260509021505 | 78 | 79 | 0.0 | 0.0 | 0.00 | 0.14 | 0.00 | 79 | 1008.6 |
| 20260509021005 | 79 | 84 | 0.0 | 0.0 | 0.00 | 0.14 | 0.00 | 79 | 1008.6 |
| 20260509020712 | 79 | 63 | 18.0 | 0.0 | 0.00 | 0.14 | 0.00 | 78 | 1008.6 |
| 20260509020005 | 79 | 59 | 9.0 | 0.0 | 0.00 | 0.14 | 0.00 | 79 | 1008.6 |
| 20260509015712 | 79 | 72 | 4.0 | 0.0 | 0.00 | 0.14 | 0.00 | 79 | 1008.6 |
| 20260509015005 | 79 | 93 | 4.0 | 0.0 | 0.00 | 0.14 | 0.00 | 79 | 1008.2 |
| 20260509014505 | 79 | 59 | 9.0 | 0.0 | 0.00 | 0.14 | 0.00 | 79 | 1008.2 |
| 20260509014005 | 79 | 67 | 9.0 | 0.0 | 0.00 | 0.14 | 0.00 | 79 | 1007.9 |
| 20260509013505 | 79 | 81 | 13.0 | 0.0 | 0.00 | 0.14 | 0.00 | 79 | 1007.9 |
| 20260509013005 | 79 | 92 | 13.0 | 0.0 | 0.00 | 0.14 | 0.00 | 78 | 1007.9 |
| 20260509012505 | 80 | 34 | 4.0 | 0.0 | 0.00 | 0.14 | 0.00 | 78 | 1007.9 |
| 20260509012005 | 80 | 63 | 18.0 | 0.0 | 0.00 | 0.14 | 0.00 | 78 | 1007.6 |
| 20260509011505 | 80 | 78 | 4.0 | 0.0 | 0.00 | 0.14 | 0.00 | 78 | 1007.2 |
| 20260509011005 | 80 | 53 | 4.0 | 0.0 | 0.00 | 0.14 | 0.00 | 77 | 1007.2 |
| 20260509010505 | 80 | 9 | 4.0 | 0.0 | 0.00 | 0.14 | 0.00 | 77 | 1007.2 |
| 20260509010213 | 80 | 104 | 23.0 | 0.0 | 0.00 | 0.14 | 0.00 | 77 | 1006.9 |
| 20260509005505 | 80 | 47 | 4.0 | 0.0 | 0.00 | 0.14 | 0.00 | 77 | 1006.9 |
| 20260509005005 | 80 | 60 | 9.0 | 0.0 | 0.00 | 0.14 | 0.00 | 76 | 1007.2 |
| 20260509004505 | 80 | 56 | 0.0 | 0.0 | 0.00 | 0.14 | 0.00 | 76 | 1007.2 |
| 20260509004004 | 81 | 80 | 0.0 | 0.0 | 0.00 | 0.14 | 0.00 | 76 | 1007.2 |
| 20260509003505 | 81 | 30 | 0.0 | 0.0 | 0.00 | 0.14 | 0.00 | 76 | 1007.2 |
| 20260509003005 | 81 | 172 | 13.0 | 0.0 | 0.00 | 0.14 | 0.00 | 75 | 1007.2 |
| 20260509002712 | 81 | 131 | 9.0 | 0.0 | 0.00 | 0.14 | 0.00 | 75 | 1006.9 |
| 20260509002005 | 81 | 33 | 9.0 | 0.0 | 0.00 | 0.14 | 0.00 | 74 | 1006.9 |
| 20260509001712 | 81 | 89 | 9.0 | 0.0 | 0.00 | 0.14 | 0.00 | 74 | 1007.2 |
| 20260509001005 | 81 | 343 | 9.0 | 0.0 | 0.00 | 0.14 | 0.00 | 75 | 1007.2 |
| 20260509000712 | 81 | 93 | 9.0 | 0.0 | 0.00 | 0.14 | 0.00 | 75 | 1006.9 |
| 20260509000005 | 81 | 75 | 4.0 | 0.0 | 0.00 | 0.14 | 0.00 | 74 | 1007.2 |
| 20260508235505 | 81 | 96 | 23.0 | 0.0 | 0.00 | 0.14 | 0.00 | 74 | 1007.2 |
| 20260508235005 | 81 | 43 | 4.0 | 0.0 | 0.00 | 0.14 | 0.00 | 73 | 1007.2 |
| 20260508234505 | 82 | 60 | 9.0 | 0.0 | 0.00 | 0.14 | 0.00 | 73 | 1007.2 |
| 20260508234004 | 82 | 65 | 4.0 | 0.0 | 0.00 | 0.14 | 0.00 | 71 | 1007.2 |
| 20260508233712 | 83 | 106 | 13.0 | 0.0 | 0.00 | 0.14 | 0.00 | 70 | 1007.6 |
| 20260508233005 | 83 | 17 | 4.0 | 0.0 | 0.00 | 0.14 | 0.00 | 69 | 1007.2 |
| 20260508232505 | 83 | 79 | 0.0 | 0.0 | 0.00 | 0.14 | 0.00 | 69 | 1007.2 |
| 20260508232212 | 83 | 64 | 4.0 | 0.0 | 0.00 | 0.14 | 0.00 | 69 | 1007.2 |
| 20260508231505 | 82 | 342 | 4.0 | 0.0 | 0.00 | 0.14 | 0.00 | 71 | 1007.2 |
| 20260508231005 | 82 | 73 | 0.0 | 0.0 | 0.00 | 0.14 | 0.00 | 71 | 1007.6 |
| 20260508230713 | 82 | 53 | 4.0 | 0.0 | 0.00 | 0.14 | 0.00 | 71 | 1007.2 |
| 20260508230005 | 82 | 50 | 0.0 | 0.0 | 0.00 | 0.14 | 0.00 | 72 | 1007.6 |
| 20260508225711 | 82 | 79 | 0.0 | 0.0 | 0.00 | 0.14 | 0.00 | 72 | 1007.2 |
| 20260508225005 | 82 | 16 | 4.0 | 0.0 | 0.00 | 0.14 | 0.00 | 72 | 1007.2 |
| 20260508224505 | 82 | 65 | 4.0 | 0.0 | 0.00 | 0.14 | 0.00 | 71 | 1006.9 |
| 20260508224005 | 83 | 327 | 9.0 | 0.0 | 0.00 | 0.14 | 0.00 | 69 | 1007.2 |
| 20260508223505 | 83 | 57 | 0.0 | 0.0 | 0.00 | 0.14 | 0.00 | 70 | 1007.2 |
| 20260508223005 | 83 | 309 | 9.0 | 0.0 | 0.00 | 0.14 | 0.00 | 70 | 1007.2 |
| 20260508222505 | 82 | 73 | 0.0 | 0.0 | 0.00 | 0.14 | 0.00 | 70 | 1007.6 |
| 20260508222005 | 82 | 69 | 0.0 | 0.0 | 0.00 | 0.14 | 0.00 | 71 | 1007.9 |
| 20260508221505 | 82 | 57 | 0.0 | 0.0 | 0.00 | 0.14 | 0.00 | 71 | 1007.6 |
| 20260508221005 | 82 | 29 | 4.0 | 0.0 | 0.00 | 0.14 | 0.00 | 71 | 1007.6 |
| 20260508220505 | 82 | 81 | 4.0 | 0.0 | 0.00 | 0.14 | 0.00 | 71 | 1007.6 |
| 20260508220212 | 82 | 77 | 0.0 | 0.0 | 0.00 | 0.14 | 0.00 | 71 | 1007.9 |
| 20260508215505 | 82 | 47 | 0.0 | 0.0 | 0.00 | 0.14 | 0.00 | 71 | 1007.9 |
| 20260508215005 | 82 | 59 | 0.0 | 0.0 | 0.00 | 0.14 | 0.00 | 71 | 1007.9 |
| 20260508214505 | 82 | 58 | 4.0 | 0.0 | 0.00 | 0.14 | 0.00 | 70 | 1008.2 |
| 20260508214005 | 83 | 60 | 4.0 | 0.0 | 0.00 | 0.14 | 0.00 | 69 | 1008.2 |
| 20260508213505 | 83 | 63 | 0.0 | 0.0 | 0.00 | 0.14 | 0.00 | 70 | 1008.2 |
| 20260508213005 | 83 | 41 | 4.0 | 0.0 | 0.00 | 0.14 | 0.00 | 70 | 1008.6 |
| 20260508212505 | 83 | 97 | 0.0 | 0.0 | 0.00 | 0.14 | 0.00 | 69 | 1008.6 |
| 20260508212005 | 83 | 91 | 4.0 | 0.0 | 0.00 | 0.14 | 0.00 | 67 | 1008.9 |
| 20260508211505 | 82 | 1 | 4.0 | 0.0 | 0.00 | 0.14 | 0.00 | 70 | 1008.6 |
| 20260508211005 | 82 | 70 | 4.0 | 0.0 | 0.00 | 0.14 | 0.00 | 70 | 1008.9 |
| 20260508210504 | 83 | 97 | 4.0 | 0.0 | 0.00 | 0.14 | 0.00 | 68 | 1008.9 |
| 20260508210214 | 83 | 16 | 0.0 | 0.0 | 0.00 | 0.14 | 0.00 | 67 | 1008.9 |
| 20260508205505 | 85 | 93 | 4.0 | 0.0 | 0.00 | 0.14 | 0.00 | 63 | 1008.6 |
| 20260508205005 | 84 | 70 | 13.0 | 0.0 | 0.00 | 0.14 | 0.00 | 65 | 1008.9 |
| 20260508204505 | 83 | 84 | 0.0 | 0.0 | 0.00 | 0.14 | 0.00 | 68 | 1008.9 |
| 20260508204005 | 83 | 164 | 9.0 | 0.0 | 0.00 | 0.14 | 0.00 | 67 | 1009.3 |
| 20260508203505 | 83 | 81 | 4.0 | 0.0 | 0.00 | 0.14 | 0.00 | 68 | 1009.3 |
| 20260508203005 | 83 | 88 | 0.0 | 0.0 | 0.00 | 0.14 | 0.00 | 69 | 1009.3 |
| 20260508202505 | 83 | 146 | 9.0 | 0.0 | 0.00 | 0.14 | 0.00 | 70 | 1009.3 |
| 20260508202005 | 83 | 72 | 4.0 | 0.0 | 0.00 | 0.14 | 0.00 | 69 | 1009.3 |
| 20260508201505 | 83 | 80 | 4.0 | 0.0 | 0.00 | 0.14 | 0.00 | 68 | 1009.6 |
| 20260508201005 | 83 | 42 | 4.0 | 0.0 | 0.00 | 0.14 | 0.00 | 70 | 1009.6 |
| 20260508200505 | 84 | 77 | 0.0 | 0.0 | 0.00 | 0.14 | 0.00 | 67 | 1009.6 |
| 20260508200211 | 83 | 58 | 0.0 | 0.0 | 0.00 | 0.14 | 0.00 | 71 | 1009.6 |
| 20260508195505 | 83 | 140 | 13.0 | 0.0 | 0.00 | 0.14 | 0.00 | 69 | 1009.6 |
| 20260508195005 | 82 | 72 | 9.0 | 0.0 | 0.00 | 0.14 | 0.00 | 68 | 1009.9 |
| 20260508194712 | 81 | 7 | 4.0 | 0.0 | 0.00 | 0.14 | 0.00 | 74 | 1009.9 |
| 20260508194005 | 83 | 15 | 4.0 | 0.0 | 0.00 | 0.14 | 0.00 | 71 | 1009.9 |
| 20260508193505 | 83 | 9 | 0.0 | 0.0 | 0.00 | 0.14 | 0.00 | 72 | 1010.3 |
| 20260508193005 | 82 | 68 | 9.0 | 0.0 | 0.00 | 0.14 | 0.00 | 71 | 1010.3 |
| 20260508192505 | 82 | 249 | 9.0 | 0.0 | 0.00 | 0.14 | 0.00 | 72 | 1010.3 |
| 20260508192004 | 82 | 65 | 4.0 | 0.0 | 0.00 | 0.14 | 0.00 | 72 | 1010.3 |
| 20260508191505 | 81 | 42 | 0.0 | 0.0 | 0.00 | 0.14 | 0.00 | 74 | 1010.6 |
| 20260508191005 | 81 | 326 | 4.0 | 0.0 | 0.00 | 0.14 | 0.00 | 73 | 1010.6 |
| 20260508190505 | 81 | 58 | 9.0 | 0.0 | 0.00 | 0.14 | 0.00 | 73 | 1010.6 |
| 20260508190213 | 80 | 318 | 4.0 | 0.0 | 0.00 | 0.14 | 0.00 | 75 | 1010.6 |
| 20260508185504 | 80 | 13 | 9.0 | 0.0 | 0.00 | 0.14 | 0.00 | 76 | 1011.0 |
| 20260508185005 | 80 | 242 | 13.0 | 0.0 | 0.00 | 0.14 | 0.00 | 77 | 1011.0 |
| 20260508184505 | 79 | 337 | 4.0 | 0.0 | 0.00 | 0.14 | 0.00 | 78 | 1011.3 |
| 20260508184005 | 79 | 14 | 4.0 | 0.0 | 0.00 | 0.14 | 0.00 | 79 | 1011.0 |
| 20260508183505 | 78 | 314 | 9.0 | 0.0 | 0.00 | 0.14 | 0.00 | 79 | 1011.3 |
| 20260508183005 | 77 | 322 | 13.0 | 0.0 | 0.00 | 0.14 | 0.00 | 81 | 1011.3 |
| 20260508182505 | 77 | 39 | 4.0 | 0.0 | 0.00 | 0.14 | 0.00 | 81 | 1011.3 |
| 20260508182005 | 77 | 225 | 4.0 | 0.0 | 0.00 | 0.14 | 0.00 | 82 | 1011.6 |
| 20260508181505 | 77 | 340 | 13.0 | 0.0 | 0.00 | 0.14 | 0.00 | 82 | 1011.6 |
| 20260508181212 | 77 | 22 | 9.0 | 0.0 | 0.00 | 0.14 | 0.00 | 83 | 1011.3 |
| 20260508180505 | 75 | 345 | 4.0 | 0.0 | 0.00 | 0.14 | 0.00 | 86 | 1011.6 |
| 20260508180005 | 75 | 345 | 4.0 | 0.0 | 0.00 | 0.14 | 0.00 | 85 | 1011.3 |
| 20260508054005 | 71 | 149 | 4.0 | 0.0 | 0.00 | 0.02 | 0.00 | 95 | 1015.7 |
| 20260508053505 | 71 | 181 | 13.0 | 0.0 | 0.00 | 0.02 | 0.00 | 95 | 1015.7 |
| 20260508053004 | 71 | 176 | 9.0 | 0.0 | 0.05 | 0.02 | 0.00 | 95 | 1015.4 |
| 20260508052505 | 71 | 203 | 4.0 | 0.0 | 0.05 | 0.02 | 0.00 | 95 | 1014.4 |
| 20260508052005 | 71 | 106 | 0.0 | 0.0 | 0.00 | 0.01 | 0.00 | 95 | 1013.7 |
| 20260508051712 | 71 | 134 | 4.0 | 0.0 | 0.07 | 0.01 | 0.00 | 95 | 1013.3 |
| 20260508051008 | 71 | 76 | 0.0 | 0.0 | 0.07 | 0.01 | 0.00 | 95 | 1013.3 |
| 20260508050712 | 71 | 58 | 4.0 | 0.0 | 0.00 | 0.00 | 0.00 | 95 | 1013.7 |
| 20260508045712 | 71 | 46 | 4.0 | 0.0 | 0.00 | 0.00 | 0.00 | 95 | 1014.4 |
| 20260508045005 | 71 | 115 | 0.0 | 0.0 | 0.00 | 0.00 | 0.00 | 95 | 1014.0 |
| 20260508044504 | 71 | 76 | 0.0 | 0.0 | 0.00 | 0.00 | 0.00 | 95 | 1014.0 |
| 20260508044005 | 71 | 54 | 0.0 | 0.0 | 0.00 | 0.00 | 0.00 | 94 | 1013.7 |
| 20260508043505 | 71 | 144 | 4.0 | 0.0 | 0.00 | 0.00 | 0.00 | 94 | 1013.7 |
| 20260508043005 | 71 | 99 | 0.0 | 0.0 | 0.00 | 0.00 | 0.00 | 94 | 1014.0 |
| 20260508042505 | 71 | 105 | 4.0 | 0.0 | 0.00 | 0.00 | 0.00 | 94 | 1014.0 |
| 20260508042005 | 71 | 59 | 4.0 | 0.0 | 0.00 | 0.00 | 0.00 | 94 | 1014.0 |
| 20260508041505 | 71 | 49 | 0.0 | 0.0 | 0.00 | 0.00 | 0.00 | 93 | 1014.4 |
| 20260508041005 | 71 | 81 | 0.0 | 0.0 | 0.00 | 0.00 | 0.00 | 93 | 1014.4 |
| 20260508040505 | 71 | 88 | 4.0 | 0.0 | 0.00 | 0.00 | 0.00 | 93 | 1014.4 |
| 20260508040005 | 71 | 109 | 4.0 | 0.0 | 0.00 | 0.00 | 0.00 | 93 | 1014.4 |
| 20260508035505 | 71 | 64 | 0.0 | 0.0 | 0.00 | 0.00 | 0.00 | 93 | 1014.0 |
| 20260508035005 | 71 | 351 | 4.0 | 0.0 | 0.00 | 0.00 | 0.00 | 93 | 1014.4 |
| 20260508034505 | 71 | 323 | 13.0 | 0.0 | 0.00 | 0.00 | 0.00 | 93 | 1014.4 |
| 20260508034005 | 71 | 58 | 23.0 | 0.0 | 0.00 | 0.00 | 0.00 | 92 | 1014.0 |
| 20260508033713 | 71 | 31 | 4.0 | 0.0 | 0.00 | 0.00 | 0.00 | 92 | 1014.4 |
| 20260508033005 | 71 | 39 | 4.0 | 0.0 | 0.00 | 0.00 | 0.00 | 92 | 1014.4 |
| 20260508032505 | 71 | 34 | 4.0 | 0.0 | 0.00 | 0.00 | 0.00 | 92 | 1014.4 |
| 20260508032004 | 71 | 68 | 4.0 | 0.0 | 0.00 | 0.00 | 0.00 | 92 | 1014.4 |
| 20260508031505 | 71 | 70 | 4.0 | 0.0 | 0.00 | 0.00 | 0.00 | 91 | 1014.4 |
| 20260508031005 | 71 | 286 | 9.0 | 0.0 | 0.00 | 0.00 | 0.00 | 91 | 1014.0 |
| 20260508030505 | 71 | 320 | 4.0 | 0.0 | 0.00 | 0.00 | 0.00 | 91 | 1014.0 |
| 20260508030005 | 71 | 113 | 9.0 | 0.0 | 0.00 | 0.00 | 0.00 | 91 | 1014.0 |
| 20260508025505 | 71 | 46 | 4.0 | 0.0 | 0.00 | 0.00 | 0.00 | 91 | 1013.7 |
| 20260508025005 | 71 | 41 | 13.0 | 0.0 | 0.00 | 0.00 | 0.00 | 90 | 1014.0 |
| 20260508024505 | 71 | 302 | 13.0 | 0.0 | 0.00 | 0.00 | 0.00 | 90 | 1014.0 |
| 20260508024005 | 71 | 24 | 9.0 | 0.0 | 0.00 | 0.00 | 0.00 | 90 | 1013.7 |
| 20260508023713 | 71 | 277 | 18.0 | 0.0 | 0.00 | 0.00 | 0.00 | 90 | 1014.0 |
| 20260508023005 | 71 | 28 | 4.0 | 0.0 | 0.00 | 0.00 | 0.00 | 90 | 1014.4 |
| 20260508022505 | 71 | 47 | 13.0 | 0.0 | 0.00 | 0.00 | 0.00 | 89 | 1014.4 |
| 20260508022005 | 71 | 301 | 13.0 | 0.0 | 0.00 | 0.00 | 0.00 | 89 | 1014.0 |